TimeCDT,TemperatureF,Dew PointF,Humidity,Sea Level PressureIn,VisibilityMPH,Wind Direction,Wind SpeedMPH,Gust SpeedMPH,PrecipitationIn,Events,Conditions,WindDirDegrees,DateUTC
12:15 AM,77.0,66.2,69,29.86,10.0,NE,5.8,-,N/A,,Scattered Clouds,50,2013-07-23 05:15:00
12:35 AM,77.0,66.2,69,29.87,10.0,NE,6.9,-,N/A,,Clear,40,2013-07-23 05:35:00
12:55 AM,75.2,66.2,73,29.88,10.0,East,5.8,-,N/A,,Scattered Clouds,90,2013-07-23 05:55:00
1:15 AM,75.2,66.2,73,29.88,10.0,ESE,8.1,-,N/A,,Scattered Clouds,120,2013-07-23 06:15:00
1:35 AM,73.4,66.2,78,29.86,10.0,ESE,5.8,-,N/A,,Scattered Clouds,110,2013-07-23 06:35:00
1:55 AM,71.6,64.4,78,29.85,10.0,SE,3.5,-,N/A,,Scattered Clouds,130,2013-07-23 06:55:00
2:15 AM,71.6,64.4,78,29.84,10.0,Calm,Calm,-,N/A,,Scattered Clouds,0,2013-07-23 07:15:00
2:35 AM,71.6,64.4,78,29.84,10.0,Calm,Calm,-,N/A,,Scattered Clouds,0,2013-07-23 07:35:00
2:55 AM,69.8,64.4,83,29.84,10.0,Calm,Calm,-,N/A,,Scattered Clouds,0,2013-07-23 07:55:00
3:15 AM,69.8,62.6,78,29.84,10.0,Calm,Calm,-,N/A,,Scattered Clouds,0,2013-07-23 08:15:00
3:35 AM,68.0,62.6,83,29.84,10.0,Calm,Calm,-,N/A,,Clear,0,2013-07-23 08:35:00
3:55 AM,66.2,62.6,88,29.85,10.0,Calm,Calm,-,N/A,,Scattered Clouds,0,2013-07-23 08:55:00
4:15 AM,68.0,62.6,83,29.85,10.0,NNE,3.5,-,N/A,,Scattered Clouds,20,2013-07-23 09:15:00
4:35 AM,68.0,62.6,83,29.87,10.0,NNE,4.6,-,N/A,,Scattered Clouds,20,2013-07-23 09:35:00
4:55 AM,68.0,64.4,88,29.88,10.0,NE,5.8,-,N/A,,Scattered Clouds,40,2013-07-23 09:55:00
5:15 AM,68.0,62.6,83,29.89,10.0,NNE,8.1,-,N/A,,Scattered Clouds,30,2013-07-23 10:15:00
5:35 AM,68.0,62.6,83,29.91,10.0,NE,6.9,-,N/A,,Scattered Clouds,40,2013-07-23 10:35:00
5:55 AM,68.0,62.6,83,29.90,10.0,ENE,9.2,-,N/A,,Scattered Clouds,60,2013-07-23 10:55:00
6:15 AM,68.0,62.6,83,29.91,10.0,NE,6.9,-,N/A,,Scattered Clouds,50,2013-07-23 11:15:00
6:35 AM,68.0,62.6,83,29.91,10.0,NE,9.2,-,N/A,,Clear,50,2013-07-23 11:35:00
6:55 AM,68.0,60.8,78,29.92,10.0,NE,13.8,18.4,N/A,Rain,Light Rain,40,2013-07-23 11:55:00
7:15 AM,68.0,60.8,78,29.96,10.0,NNE,10.4,17.3,N/A,,Scattered Clouds,30,2013-07-23 12:15:00
7:35 AM,68.0,57.2,68,29.97,10.0,NNE,6.9,16.1,N/A,,Scattered Clouds,30,2013-07-23 12:35:00
7:55 AM,68.0,59.0,73,30.06,10.0,West,20.7,29.9,N/A,,Mostly Cloudy,270,2013-07-23 12:55:00
8:15 AM,66.2,59.0,78,30.01,7.0,North,16.1,21.9,N/A,Rain,Rain,10,2013-07-23 13:15:00
8:35 AM,64.4,57.2,77,29.98,10.0,NNE,8.1,-,0.04,Rain,Light Rain,20,2013-07-23 13:35:00
8:55 AM,64.4,57.2,77,29.96,10.0,NE,8.1,-,0.04,Rain,Light Rain,50,2013-07-23 13:55:00
9:15 AM,64.4,57.2,77,29.95,10.0,North,6.9,-,0.04,Rain,Rain,360,2013-07-23 14:15:00
9:35 AM,64.4,59.0,83,29.95,10.0,ESE,6.9,-,0.06,Rain,Light Rain,110,2013-07-23 14:35:00
9:55 AM,64.4,59.0,83,29.89,10.0,ENE,11.5,-,0.06,,Scattered Clouds,70,2013-07-23 14:55:00
10:15 AM,66.2,59.0,78,29.88,10.0,ENE,15.0,18.4,N/A,,Clear,60,2013-07-23 15:15:00
10:35 AM,66.2,59.0,78,29.88,10.0,ENE,12.7,-,N/A,,Clear,60,2013-07-23 15:35:00
10:55 AM,66.2,59.0,78,29.91,10.0,ENE,4.6,9.2,N/A,,Clear,70,2013-07-23 15:55:00
11:15 AM,66.2,59.0,78,29.93,10.0,NE,4.6,-,N/A,,Clear,50,2013-07-23 16:15:00
11:35 AM,69.8,60.8,73,29.97,10.0,SW,6.9,-,N/A,,Clear,220,2013-07-23 16:35:00
11:55 AM,69.8,60.8,73,29.96,10.0,East,3.5,-,N/A,,Clear,80,2013-07-23 16:55:00
12:15 PM,71.6,60.8,69,29.98,10.0,ENE,3.5,-,N/A,,Clear,70,2013-07-23 17:15:00
12:35 PM,73.4,60.8,65,29.98,10.0,Calm,Calm,-,N/A,,Clear,0,2013-07-23 17:35:00
12:55 PM,73.4,60.8,65,29.98,10.0,ENE,3.5,-,N/A,,Scattered Clouds,70,2013-07-23 17:55:00
1:15 PM,75.2,60.8,61,29.97,10.0,East,9.2,-,N/A,,Scattered Clouds,90,2013-07-23 18:15:00
1:35 PM,75.2,60.8,61,29.98,10.0,East,4.6,-,N/A,,Clear,80,2013-07-23 18:35:00
1:55 PM,75.2,62.6,65,29.97,10.0,ENE,5.8,-,N/A,,Clear,60,2013-07-23 18:55:00
2:15 PM,75.2,60.8,61,29.97,10.0,East,6.9,-,N/A,,Clear,100,2013-07-23 19:15:00
2:35 PM,75.2,62.6,65,29.97,10.0,East,9.2,-,N/A,,Clear,80,2013-07-23 19:35:00
3:15 PM,78.8,62.6,57,29.97,10.0,ENE,6.9,-,N/A,,Clear,60,2013-07-23 20:15:00
3:35 PM,77.0,62.6,61,29.96,10.0,East,8.1,-,N/A,,Clear,90,2013-07-23 20:35:00
3:55 PM,78.8,62.6,57,29.97,10.0,East,9.2,-,N/A,,Clear,90,2013-07-23 20:55:00
4:15 PM,78.8,62.6,57,29.96,10.0,East,6.9,-,N/A,,Clear,90,2013-07-23 21:15:00
4:35 PM,78.8,62.6,57,29.96,10.0,ENE,4.6,-,N/A,,Clear,70,2013-07-23 21:35:00
4:55 PM,80.6,62.6,54,29.96,10.0,ENE,6.9,-,N/A,,Clear,60,2013-07-23 21:55:00
5:15 PM,80.6,62.6,54,29.95,10.0,ENE,9.2,-,N/A,,Clear,60,2013-07-23 22:15:00
5:35 PM,78.8,60.8,54,29.96,10.0,NE,3.5,-,N/A,,Clear,50,2013-07-23 22:35:00
5:55 PM,78.8,60.8,54,29.96,10.0,NNE,3.5,-,N/A,,Clear,20,2013-07-23 22:55:00
6:15 PM,78.8,60.8,54,29.95,10.0,ENE,4.6,-,N/A,,Clear,70,2013-07-23 23:15:00
6:35 PM,78.8,62.6,57,29.95,10.0,NE,5.8,-,N/A,,Clear,40,2013-07-23 23:35:00
6:55 PM,78.8,62.6,57,29.95,10.0,NE,4.6,-,N/A,,Clear,50,2013-07-23 23:55:00
7:15 PM,78.8,62.6,57,29.95,10.0,NE,4.6,-,N/A,,Clear,50,2013-07-24 00:15:00
7:35 PM,75.2,62.6,65,29.95,10.0,NE,4.6,-,N/A,,Clear,50,2013-07-24 00:35:00
7:55 PM,75.2,62.6,65,29.95,10.0,ENE,3.5,-,N/A,,Clear,70,2013-07-24 00:55:00
8:15 PM,73.4,62.6,69,29.95,10.0,NE,3.5,-,N/A,,Clear,50,2013-07-24 01:15:00
8:35 PM,71.6,62.6,73,29.96,10.0,NE,3.5,-,N/A,,Clear,40,2013-07-24 01:35:00
8:55 PM,69.8,62.6,78,29.96,10.0,NE,3.5,-,N/A,,Scattered Clouds,50,2013-07-24 01:55:00
9:15 PM,69.8,62.6,78,29.97,10.0,Calm,Calm,-,N/A,,Scattered Clouds,0,2013-07-24 02:15:00
9:35 PM,66.2,60.8,83,29.98,10.0,Calm,Calm,-,N/A,,Clear,0,2013-07-24 02:35:00
9:55 PM,66.2,60.8,83,29.99,10.0,NE,3.5,-,N/A,,Scattered Clouds,40,2013-07-24 02:55:00
10:15 PM,66.2,60.8,83,29.99,10.0,NE,3.5,-,N/A,,Scattered Clouds,40,2013-07-24 03:15:00
10:35 PM,64.4,59.0,83,29.99,10.0,NE,3.5,-,N/A,,Scattered Clouds,40,2013-07-24 03:35:00
10:55 PM,64.4,59.0,83,29.98,10.0,NE,3.5,-,N/A,,Scattered Clouds,40,2013-07-24 03:55:00
11:15 PM,64.4,57.2,77,29.99,10.0,Calm,Calm,-,N/A,,Scattered Clouds,0,2013-07-24 04:15:00
11:35 PM,64.4,59.0,83,30.00,10.0,Calm,Calm,-,N/A,,Scattered Clouds,0,2013-07-24 04:35:00
11:55 PM,64.4,57.2,77,30.01,10.0,Calm,Calm,-,N/A,,Scattered Clouds,0,2013-07-24 04:55:00